Simultaneous Nadir Overpasses (SNOs) Predictions

Prediction of SNOs between FY3D and TERRA Satellite Orbit:

Table of predicted SNOs for the next 14.0 days since TLE Epoch: 5/29/2021
Index Date (FY3D) Time (FY3D) Lat,Lon (FY3D) SZA (FY3D ) Date (TERRA) Time (TERRA) Lat,Lon (TERRA) SZA (TERRA ) Distance(km) Time Diff (sec)
1 05/29/2021 19:09:22 -70.13, 71.80 131.73 05/29/2021 19:10:33 -70.04, 72.56 131.82 30.45 71
2 05/29/2021 20:00:00 69.69,-120.23 47.83 05/29/2021 20:00:04 69.71,-120.25 47.85 2.94 4
3 05/29/2021 20:50:41 -69.60, 47.22 132.26 05/29/2021 20:49:34 -69.60, 47.23 132.27 0.72 67
4 06/01/2021 11:25:45 -70.32,-172.57 131.90 06/01/2021 11:26:55 -70.24,-171.27 131.99 49.78 70
5 06/01/2021 12:16:20 69.73, -4.35 47.50 06/01/2021 12:16:29 69.74, -4.32 47.51 1.98 9
6 06/01/2021 13:07:01 -69.64, 163.10 132.60 06/01/2021 13:05:59 -69.63, 163.16 132.61 2.79 62
7 06/04/2021 03:42:09 -70.58, -57.04 131.98 06/04/2021 03:43:17 -70.43, -55.10 132.12 73.45 68
8 06/04/2021 04:32:39 69.72, 111.59 47.16 06/04/2021 04:32:55 69.72, 111.53 47.15 2.75 16
9 06/04/2021 05:23:19 -69.63, -80.95 132.94 06/04/2021 05:22:24 -69.61, -80.98 132.96 2.94 55
10 06/06/2021 19:58:31 -70.77, 58.58 132.06 06/06/2021 19:59:37 -70.68, 61.14 132.16 94.82 66
11 06/06/2021 20:48:58 69.77,-132.54 46.92 06/06/2021 20:49:18 69.79,-132.48 46.94 3.23 20
12 06/06/2021 21:39:38 -69.62, 35.01 133.23 06/06/2021 21:38:49 -69.64, 34.93 133.22 3.11 49
13 06/09/2021 13:05:17 69.77, -16.59 46.68 06/09/2021 13:05:44 69.76, -16.65 46.67 2.60 27
14 06/09/2021 13:55:58 -69.67, 150.88 133.43 06/09/2021 13:55:14 -69.66, 150.85 133.44 1.76 44



Historial Predications of SNOs between FY3D and TERRA
